Time,TemperatureF,DewpointF,PressureIn,WindDirection,WindDirectionDegrees,WindSpeedMPH,WindSpeedGustMPH,Humidity,HourlyPrecipIn,Conditions,Clouds,dailyrainin,SoftwareType,DateUTC
2013-11-20 00:00:00,47.2,40.0,30.25,NE,47,1.0,-999.0,77,-99.99,,,0.00,weatherlink.com 1.10,2013-11-20 05:00:00,
2013-11-20 00:15:00,47.2,41.0,30.24,NE,45,1.0,-999.0,78,-99.99,,,0.00,weatherlink.com 1.10,2013-11-20 05:15:00,
2013-11-20 00:30:00,47.4,41.0,30.24,NE,39,3.0,-999.0,78,-99.99,,,0.00,weatherlink.com 1.10,2013-11-20 05:30:00,
2013-11-20 00:45:00,47.4,41.0,30.23,NNE,27,11.0,-999.0,78,-99.99,,,0.00,weatherlink.com 1.10,2013-11-20 05:45:00,
2013-11-20 01:00:00,47.6,41.0,30.22,ENE,68,4.0,-999.0,78,-99.99,,,0.00,weatherlink.com 1.10,2013-11-20 06:00:00,
2013-11-20 01:16:00,47.9,41.0,30.24,NNW,335,7.0,-999.0,78,-99.99,,,0.00,weatherlink.com 1.10,2013-11-20 06:16:00,
2013-11-20 01:31:00,47.9,41.0,30.25,ENE,59,3.0,-999.0,78,-99.99,,,0.00,weatherlink.com 1.10,2013-11-20 06:31:00,
2013-11-20 01:46:00,47.7,42.0,30.24,NNE,15,1.0,-999.0,79,-99.99,,,0.00,weatherlink.com 1.10,2013-11-20 06:46:00,
2013-11-20 02:01:00,47.6,42.0,30.25,North,355,5.0,-999.0,80,-99.99,,,0.00,weatherlink.com 1.10,2013-11-20 07:01:00,
2013-11-20 02:16:00,47.5,42.0,30.25,North,10,6.0,-999.0,80,-99.99,,,0.00,weatherlink.com 1.10,2013-11-20 07:16:00,
2013-11-20 02:31:00,47.6,42.0,30.25,NE,43,0.0,-999.0,81,-99.99,,,0.00,weatherlink.com 1.10,2013-11-20 07:31:00,
2013-11-20 02:46:00,47.5,42.0,30.24,ENE,75,2.0,-999.0,81,-99.99,,,0.00,weatherlink.com 1.10,2013-11-20 07:46:00,
2013-11-20 03:01:00,47.6,42.0,30.25,ENE,70,2.0,-999.0,81,-99.99,,,0.00,weatherlink.com 1.10,2013-11-20 08:01:00,
2013-11-20 03:16:00,47.7,42.0,30.26,North,9,1.0,-999.0,81,-99.99,,,0.00,weatherlink.com 1.10,2013-11-20 08:16:00,
2013-11-20 03:31:00,47.3,42.0,30.25,North,2,5.0,-999.0,82,-99.99,,,0.00,weatherlink.com 1.10,2013-11-20 08:31:00,
2013-11-20 03:46:00,47.5,42.0,30.26,NNW,333,4.0,-999.0,82,-99.99,,,0.00,weatherlink.com 1.10,2013-11-20 08:46:00,
2013-11-20 04:01:00,47.7,43.0,30.26,NE,34,4.0,-999.0,82,-99.99,,,0.00,weatherlink.com 1.10,2013-11-20 09:01:00,
2013-11-20 04:17:00,47.9,43.0,30.25,NE,48,2.0,-999.0,82,-99.99,,,0.00,weatherlink.com 1.10,2013-11-20 09:17:00,
2013-11-20 04:32:00,48.1,43.0,30.26,ENE,64,4.0,-999.0,81,-99.99,,,0.00,weatherlink.com 1.10,2013-11-20 09:32:00,
2013-11-20 04:47:00,48.0,43.0,30.27,ENE,70,0.0,-999.0,82,-99.99,,,0.00,weatherlink.com 1.10,2013-11-20 09:47:00,
2013-11-20 05:02:00,47.9,43.0,30.28,NE,51,1.0,-999.0,83,-99.99,,,0.00,weatherlink.com 1.10,2013-11-20 10:02:00,
2013-11-20 05:17:00,47.9,43.0,30.28,ENE,66,5.0,-999.0,83,-99.99,,,0.00,weatherlink.com 1.10,2013-11-20 10:17:00,
2013-11-20 05:32:00,48.1,43.0,30.26,NE,49,6.0,-999.0,83,-99.99,,,0.00,weatherlink.com 1.10,2013-11-20 10:32:00,
2013-11-20 05:47:00,48.1,44.0,30.26,NE,49,1.0,-999.0,84,-99.99,,,0.00,weatherlink.com 1.10,2013-11-20 10:47:00,
2013-11-20 06:02:00,48.1,44.0,30.27,West,281,5.0,-999.0,84,-99.99,,,0.00,weatherlink.com 1.10,2013-11-20 11:02:00,
2013-11-20 06:17:00,48.2,44.0,30.27,NE,53,1.0,-999.0,84,-99.99,,,0.00,weatherlink.com 1.10,2013-11-20 11:17:00,
2013-11-20 06:32:00,48.4,44.0,30.27,NNE,17,3.0,-999.0,84,-99.99,,,0.00,weatherlink.com 1.10,2013-11-20 11:32:00,
2013-11-20 06:47:00,48.5,44.0,30.28,NE,37,3.0,-999.0,84,-99.99,,,0.00,weatherlink.com 1.10,2013-11-20 11:47:00,
2013-11-20 07:02:00,48.9,44.0,30.30,NNE,16,0.0,-999.0,83,-99.99,,,0.00,weatherlink.com 1.10,2013-11-20 12:02:00,
2013-11-20 07:18:00,49.2,44.0,30.30,NNE,23,8.0,-999.0,83,-99.99,,,0.00,weatherlink.com 1.10,2013-11-20 12:18:00,
2013-11-20 07:33:00,49.3,45.0,30.31,North,5,9.0,-999.0,84,-99.99,,,0.00,weatherlink.com 1.10,2013-11-20 12:33:00,
2013-11-20 07:48:00,49.6,45.0,30.31,NNE,27,3.0,-999.0,84,-99.99,,,0.00,weatherlink.com 1.10,2013-11-20 12:48:00,
2013-11-20 08:03:00,50.0,45.0,30.32,East,91,2.0,-999.0,83,-99.99,,,0.00,weatherlink.com 1.10,2013-11-20 13:03:00,
2013-11-20 08:18:00,50.2,45.0,30.32,NE,41,4.0,-999.0,83,-99.99,,,0.00,weatherlink.com 1.10,2013-11-20 13:18:00,
2013-11-20 08:33:00,50.4,45.0,30.33,North,353,5.0,-999.0,83,-99.99,,,0.00,weatherlink.com 1.10,2013-11-20 13:33:00,
2013-11-20 08:48:00,50.5,46.0,30.33,North,5,1.0,-999.0,83,-99.99,,,0.00,weatherlink.com 1.10,2013-11-20 13:48:00,
2013-11-20 09:03:00,53.0,47.0,30.34,NE,39,9.0,-999.0,81,-99.99,,,0.00,weatherlink.com 1.10,2013-11-20 14:03:00,
2013-11-20 09:18:00,54.2,47.0,30.34,NNE,22,5.0,-999.0,78,-99.99,,,0.00,weatherlink.com 1.10,2013-11-20 14:18:00,
2013-11-20 09:33:00,54.8,47.0,30.35,East,81,1.0,-999.0,75,-99.99,,,0.00,weatherlink.com 1.10,2013-11-20 14:33:00,
2013-11-20 09:49:00,55.0,48.0,30.35,NNE,26,4.0,-999.0,76,-99.99,,,0.00,weatherlink.com 1.10,2013-11-20 14:49:00,
2013-11-20 10:04:00,55.0,47.0,30.35,North,6,3.0,-999.0,75,-99.99,,,0.00,weatherlink.com 1.10,2013-11-20 15:04:00,
2013-11-20 10:19:00,56.0,48.0,30.35,NE,36,6.0,-999.0,75,-99.99,,,0.00,weatherlink.com 1.10,2013-11-20 15:19:00,
2013-11-20 10:34:00,56.9,49.0,30.35,NNE,20,3.0,-999.0,75,-99.99,,,0.00,weatherlink.com 1.10,2013-11-20 15:34:00,
2013-11-20 10:49:00,57.9,50.0,30.34,NE,48,1.0,-999.0,74,-99.99,,,0.00,weatherlink.com 1.10,2013-11-20 15:49:00,
2013-11-20 11:04:00,58.3,50.0,30.34,East,89,2.0,-999.0,74,-99.99,,,0.00,weatherlink.com 1.10,2013-11-20 16:04:00,
2013-11-20 11:19:00,58.2,50.0,30.34,NNW,337,5.0,-999.0,73,-99.99,,,0.00,weatherlink.com 1.10,2013-11-20 16:19:00,
2013-11-20 11:34:00,58.4,50.0,30.34,NE,51,12.0,-999.0,73,-99.99,,,0.00,weatherlink.com 1.10,2013-11-20 16:34:00,
2013-11-20 11:49:00,58.7,49.0,30.33,WNW,297,6.0,-999.0,71,-99.99,,,0.00,weatherlink.com 1.10,2013-11-20 16:49:00,
2013-11-20 12:04:00,59.4,50.0,30.33,ENE,68,8.0,-999.0,72,-99.99,,,0.00,weatherlink.com 1.10,2013-11-20 17:04:00,
2013-11-20 12:19:00,58.7,50.0,30.32,NW,315,2.0,-999.0,72,-99.99,,,0.00,weatherlink.com 1.10,2013-11-20 17:19:00,
2013-11-20 12:35:00,59.3,51.0,30.32,ENE,66,3.0,-999.0,73,-99.99,,,0.00,weatherlink.com 1.10,2013-11-20 17:35:00,
2013-11-20 12:50:00,59.9,50.0,30.33,ENE,58,1.0,-999.0,70,-99.99,,,0.00,weatherlink.com 1.10,2013-11-20 17:50:00,
2013-11-20 13:05:00,59.2,50.0,30.33,NNW,334,2.0,-999.0,71,-99.99,,,0.00,weatherlink.com 1.10,2013-11-20 18:05:00,
2013-11-20 13:20:00,59.6,51.0,30.33,ENE,69,10.0,-999.0,72,-99.99,,,0.00,weatherlink.com 1.10,2013-11-20 18:20:00,
2013-11-20 13:35:00,59.8,50.0,30.33,East,99,3.0,-999.0,71,-99.99,,,0.00,weatherlink.com 1.10,2013-11-20 18:35:00,
2013-11-20 13:50:00,59.3,50.0,30.33,East,88,6.0,-999.0,72,-99.99,,,0.00,weatherlink.com 1.10,2013-11-20 18:50:00,
2013-11-20 14:05:00,59.3,50.0,30.33,East,84,1.0,-999.0,72,-99.99,,,0.00,weatherlink.com 1.10,2013-11-20 19:05:00,
2013-11-20 14:20:00,58.7,50.0,30.32,SE,144,3.0,-999.0,72,-99.99,,,0.00,weatherlink.com 1.10,2013-11-20 19:20:00,
2013-11-20 14:35:00,58.0,50.0,30.33,North,353,0.0,-999.0,75,-99.99,,,0.00,weatherlink.com 1.10,2013-11-20 19:35:00,
2013-11-20 14:50:00,57.7,50.0,30.33,ENE,64,11.0,-999.0,75,-99.99,,,0.00,weatherlink.com 1.10,2013-11-20 19:50:00,
2013-11-20 15:05:00,57.9,50.0,30.33,East,97,2.0,-999.0,76,-99.99,,,0.00,weatherlink.com 1.10,2013-11-20 20:05:00,
2013-11-20 15:20:00,57.2,50.0,30.33,NW,320,7.0,-999.0,77,-99.99,,,0.00,weatherlink.com 1.10,2013-11-20 20:20:00,
2013-11-20 15:35:00,57.1,50.0,30.34,ENE,62,2.0,-999.0,77,-99.99,,,0.00,weatherlink.com 1.10,2013-11-20 20:35:00,
2013-11-20 15:51:00,56.9,50.0,30.33,NE,51,2.0,-999.0,78,-99.99,,,0.00,weatherlink.com 1.10,2013-11-20 20:51:00,
2013-11-20 16:06:00,56.7,50.0,30.34,NNE,23,3.0,-999.0,78,-99.99,,,0.00,weatherlink.com 1.10,2013-11-20 21:06:00,
2013-11-20 16:21:00,56.1,50.0,30.34,East,79,2.0,-999.0,79,-99.99,,,0.00,weatherlink.com 1.10,2013-11-20 21:21:00,
2013-11-20 16:36:00,55.8,50.0,30.34,NE,50,2.0,-999.0,80,-99.99,,,0.00,weatherlink.com 1.10,2013-11-20 21:36:00,
2013-11-20 16:51:00,55.2,50.0,30.34,NNE,29,6.0,-999.0,81,-99.99,,,0.00,weatherlink.com 1.10,2013-11-20 21:51:00,
2013-11-20 17:06:00,54.6,49.0,30.34,East,85,1.0,-999.0,82,-99.99,,,0.00,weatherlink.com 1.10,2013-11-20 22:06:00,
2013-11-20 17:21:00,54.1,49.0,30.35,North,2,1.0,-999.0,83,-99.99,,,0.00,weatherlink.com 1.10,2013-11-20 22:21:00,
2013-11-20 17:36:00,53.9,49.0,30.36,NNE,17,3.0,-999.0,84,-99.99,,,0.00,weatherlink.com 1.10,2013-11-20 22:36:00,
2013-11-20 17:51:00,53.7,49.0,30.36,NNE,17,3.0,-999.0,84,-99.99,,,0.00,weatherlink.com 1.10,2013-11-20 22:51:00,
2013-11-20 18:06:00,53.5,49.0,30.36,ENE,75,4.0,-999.0,84,-99.99,,,0.00,weatherlink.com 1.10,2013-11-20 23:06:00,
2013-11-20 18:21:00,53.2,49.0,30.36,ENE,63,1.0,-999.0,84,-99.99,,,0.00,weatherlink.com 1.10,2013-11-20 23:21:00,
2013-11-20 18:36:00,53.0,49.0,30.36,NNE,21,6.0,-999.0,85,-99.99,,,0.00,weatherlink.com 1.10,2013-11-20 23:36:00,
2013-11-20 18:51:00,52.7,48.0,30.36,NNW,347,0.0,-999.0,85,-99.99,,,0.00,weatherlink.com 1.10,2013-11-20 23:51:00,
2013-11-20 19:07:00,52.5,48.0,30.37,North,358,1.0,-999.0,85,-99.99,,,0.00,weatherlink.com 1.10,2013-11-21 00:07:00,
2013-11-20 19:22:00,52.2,48.0,30.37,North,360,2.0,-999.0,86,-99.99,,,0.00,weatherlink.com 1.10,2013-11-21 00:22:00,
2013-11-20 19:37:00,52.3,48.0,30.38,North,354,1.0,-999.0,86,-99.99,,,0.00,weatherlink.com 1.10,2013-11-21 00:37:00,
2013-11-20 19:52:00,52.5,49.0,30.38,NNE,33,0.0,-999.0,87,-99.99,,,0.00,weatherlink.com 1.10,2013-11-21 00:52:00,
2013-11-20 20:07:00,52.9,49.0,30.38,NE,40,2.0,-999.0,87,-99.99,,,0.00,weatherlink.com 1.10,2013-11-21 01:07:00,
2013-11-20 20:22:00,53.0,49.0,30.38,NW,320,0.0,-999.0,87,-99.99,,,0.00,weatherlink.com 1.10,2013-11-21 01:22:00,
2013-11-20 20:37:00,52.9,49.0,30.37,NNE,26,5.0,-999.0,87,-99.99,,,0.00,weatherlink.com 1.10,2013-11-21 01:37:00,
2013-11-20 20:52:00,53.0,50.0,30.37,SSE,162,1.0,-999.0,88,-99.99,,,0.00,weatherlink.com 1.10,2013-11-21 01:52:00,
2013-11-20 21:07:00,53.1,50.0,30.37,North,3,0.0,-999.0,88,-99.99,,,0.00,weatherlink.com 1.10,2013-11-21 02:07:00,
2013-11-20 21:22:00,53.1,50.0,30.37,NNE,21,0.0,-999.0,88,-99.99,,,0.00,weatherlink.com 1.10,2013-11-21 02:22:00,
2013-11-20 21:37:00,53.3,50.0,30.37,NNE,31,4.0,-999.0,88,-99.99,,,0.00,weatherlink.com 1.10,2013-11-21 02:37:00,
2013-11-20 21:52:00,53.5,50.0,30.38,North,7,1.0,-999.0,88,-99.99,,,0.00,weatherlink.com 1.10,2013-11-21 02:52:00,
2013-11-20 22:07:00,53.6,50.0,30.37,NE,47,0.0,-999.0,88,-99.99,,,0.00,weatherlink.com 1.10,2013-11-21 03:07:00,
2013-11-20 22:23:00,53.9,51.0,30.38,ENE,59,4.0,-999.0,88,-99.99,,,0.00,weatherlink.com 1.10,2013-11-21 03:23:00,
2013-11-20 22:38:00,54.2,51.0,30.37,NNW,347,4.0,-999.0,88,-99.99,,,0.00,weatherlink.com 1.10,2013-11-21 03:38:00,
2013-11-20 22:53:00,54.3,51.0,30.38,NE,36,0.0,-999.0,88,-99.99,,,0.00,weatherlink.com 1.10,2013-11-21 03:53:00,
2013-11-20 23:08:00,54.3,51.0,30.37,East,81,1.0,-999.0,88,-99.99,,,0.00,weatherlink.com 1.10,2013-11-21 04:08:00,
2013-11-20 23:23:00,54.5,51.0,30.37,ENE,61,2.0,-999.0,89,-99.99,,,0.00,weatherlink.com 1.10,2013-11-21 04:23:00,
2013-11-20 23:38:00,54.5,51.0,30.37,ESE,115,0.0,-999.0,89,-99.99,,,0.00,weatherlink.com 1.10,2013-11-21 04:38:00,
2013-11-20 23:53:00,54.6,52.0,30.37,NNW,328,0.0,-999.0,89,-99.99,,,0.00,weatherlink.com 1.10,2013-11-21 04:53:00,